Powrót do katalogu

DELTA 1 R/B

AktywnySSO
NORAD 3036·ROCKET BODY·🇺🇸 United States

Wystrzelony Nov 10, 1967 z Vandenberg Space Force Base

Loading…

Następne Przeloty (najbliższe 24 godziny)

TLE

ŚwieżeSource: Space-Track

Epoka: Sep 14, 2026, 13:13 UTC

1  3036U 67114B   26257.55125669 -.00000023  00000-0  14725-3 0  9990
2  3036 102.0166 359.8264 0047824 328.5389  41.4075 12.54140384693551

Śledź DELTA 1 R/B w czasie rzeczywistym z AllMySat

Download on the App Store